Chicago O'Hare International, IL

1:43 PM CST on February 20, 2017 (GMT -0600)
Chicago-O'Hare International

Weather History for KORD - February, 2013

Change the Weather History Date:

Thursday, February 7, 2013

  Actual Average Record
Temperature  
Mean Temperature 33 °F 25 °F  
Max Temperature 34 °F 33 °F 59 °F (1925)
Min Temperature 31 °F 18 °F -10 °F (1875)
Degree Days  
Heating Degree Days 32 40  
Month to date heating degree days 320 281  
Since 1 July heating degree days 3639 3971  
Cooling Degree Days 0 0  
Month to date cooling degree days 0 0  
Year to date cooling degree days 0 0  
Moisture  
Dew Point 31 °F    
Average Humidity 88    
Maximum Humidity 100    
Minimum Humidity 75    
Precipitation  
Precipitation 1.07 in 0.06 in 1.34 in (1881)
Month to date precipitation 1.46 0.36  
Year to date precipitation 5.09 2.09  
Snow  
Snow 1.40 in 0.40 in 8.60 in (1933)
Month to date snowfall 7.1 2.5  
Since 1 July snowfall 10.6 22.9  
Snow Depth 2.00 in    
Sea Level Pressure  
Sea Level Pressure 29.96 in    
Wind  
Wind Speed 8 mph (ESE)    
Max Wind Speed 18 mph    
Max Gust Speed 22 mph    
Visibility 3 miles    
Events Fog , Rain , Snow    
T = Trace of Precipitation, MM = Missing Value Source: NWS Daily Summary

Daily Weather History Graph

Daily Weather History Graph

Search for Another Location

Airport or City:

Trip Planner

Search our weather history database for the weather conditions in past years. The results will help you decide how hot, cold, wet, or windy it might be!

Date:

Astronomy

Feb. 07, 2013 Rise Set
Actual Time 6:57 AM CST 5:14 PM CST
Civil Twilight 6:28 AM CST 5:43 PM CST
Nautical Twilight 5:55 AM CST 6:16 PM CST
Astronomical Twilight 5:22 AM CST 6:49 PM CST
Moon 4:38 AM CST (2/7) 2:37 PM CST (2/7)
Length of Visible Light 11h 15m
Length of Day
10h 17m
Waning Crescent, 9% of the Moon is Illuminated
Feb 7
Waning Crescent
Feb 10
New
Feb 17
First Quarter
Feb 25
Full
Mar 4
Last Quarter

Hourly Weather History & Observations

Time (CST) Temp. Windchill Dew Point Humidity Pressure Visibility Wind Dir Wind Speed Gust Speed Precip Events Conditions
12:51 AM 33.1 °F 24.9 °F 27.0 °F 78% 30.10 in 7.0 mi SSE 10.4 mph - N/A   Overcast
1:51 AM 30.9 °F 26.2 °F 27.0 °F 85% 30.11 in 6.0 mi SSE 4.6 mph - N/A   Overcast
2:51 AM 32.0 °F 24.8 °F 28.0 °F 85% 30.10 in 6.0 mi SE 8.1 mph - N/A   Overcast
3:43 AM 32.0 °F 24.2 °F 28.4 °F 87% 30.07 in 5.0 mi SSE 9.2 mph - 0.00 in Rain Light Freezing Rain
3:51 AM 33.1 °F 24.9 °F 28.9 °F 85% 30.09 in 5.0 mi SSE 10.4 mph - 0.00 in Rain Light Freezing Rain
4:17 AM 32.0 °F 23.6 °F 28.4 °F 87% 30.06 in 5.0 mi SSE 10.4 mph - 0.00 in Rain Light Rain
4:28 AM 32.0 °F 24.2 °F 28.4 °F 87% 30.06 in 4.0 mi SSE 9.2 mph - 0.01 in Rain Light Freezing Rain
4:51 AM 32.0 °F 23.6 °F 28.9 °F 88% 30.07 in 4.0 mi SSE 10.4 mph - 0.03 in Rain Light Freezing Rain
5:51 AM 32.0 °F 23.6 °F 30.0 °F 92% 30.07 in 4.0 mi SSE 10.4 mph - 0.06 in Rain Light Freezing Rain
6:51 AM 32.0 °F 23.6 °F 30.9 °F 96% 30.06 in 3.0 mi SSE 10.4 mph - 0.03 in Rain Light Freezing Rain
7:38 AM 32.0 °F 23.0 °F 30.2 °F 93% 30.03 in 2.5 mi SSE 11.5 mph - 0.04 in Rain Light Freezing Rain
7:51 AM 33.1 °F 27.7 °F 30.9 °F 92% 30.04 in 2.5 mi SSE 5.8 mph - 0.05 in Rain Light Rain
7:59 AM 33.8 °F 27.0 °F 30.2 °F 87% 30.02 in 2.5 mi SSE 8.1 mph - 0.00 in   Light Ice Pellets
8:06 AM 33.8 °F 26.4 °F 30.2 °F 87% 30.02 in 2.5 mi SSE 9.2 mph - 0.00 in Snow Light Snow
8:51 AM 33.1 °F 24.9 °F 30.9 °F 92% 30.03 in 2.5 mi SSE 10.4 mph - 0.00 in   Overcast
9:32 AM 33.8 °F 26.4 °F 30.2 °F 87% 30.00 in 3.0 mi SSE 9.2 mph - 0.00 in Rain Light Rain
9:38 AM 33.8 °F 27.0 °F 30.2 °F 87% 29.99 in 2.5 mi SE 8.1 mph - 0.00 in Rain Light Rain
9:51 AM 33.1 °F 25.5 °F 30.9 °F 92% 30.01 in 2.5 mi SE 9.2 mph - 0.01 in Rain Light Rain
10:08 AM 33.8 °F 27.0 °F 30.2 °F 87% 29.99 in 2.5 mi SE 8.1 mph - 0.01 in Rain Light Rain
10:35 AM 33.8 °F 28.6 °F 32.0 °F 93% 30.00 in 2.5 mi SSE 5.8 mph - 0.03 in Rain Light Rain
10:47 AM 33.8 °F 29.6 °F 32.0 °F 93% 30.00 in 2.5 mi SE 4.6 mph - 0.04 in Rain Light Rain
10:51 AM 33.1 °F 26.9 °F 32.0 °F 96% 30.01 in 2.0 mi SE 6.9 mph - 0.05 in Rain Rain
11:51 AM 34.0 °F 28.8 °F 33.1 °F 96% 29.98 in 1.5 mi SE 5.8 mph - 0.10 in Rain Rain
12:51 PM 34.0 °F 28.0 °F 33.1 °F 96% 29.94 in 1.5 mi East 6.9 mph - 0.10 in Rain Light Rain
12:59 PM 33.8 °F 27.7 °F 33.8 °F 100% 29.92 in 1.5 mi East 6.9 mph - 0.01 in Rain Light Rain
1:28 PM 33.8 °F 27.7 °F 33.8 °F 100% 29.91 in 1.5 mi East 6.9 mph - 0.04 in Rain Rain
1:51 PM 34.0 °F 29.8 °F 33.1 °F 96% 29.92 in 1.5 mi East 4.6 mph - 0.07 in Rain Rain
2:08 PM 33.8 °F 28.6 °F 33.8 °F 100% 29.89 in 1.0 mi ENE 5.8 mph - 0.04 in Rain Rain
2:51 PM 34.0 °F 29.8 °F 33.1 °F 96% 29.90 in 1.2 mi East 4.6 mph - 0.13 in Rain Rain
3:09 PM 33.8 °F 29.6 °F 33.8 °F 100% 29.87 in 1.2 mi ENE 4.6 mph - 0.03 in Rain , Snow Light Snow
3:35 PM 33.8 °F 29.6 °F 32.0 °F 93% 29.85 in 0.8 mi ENE 4.6 mph - 0.07 in Snow Light Snow
3:51 PM 33.1 °F 27.7 °F 32.0 °F 96% 29.86 in 0.8 mi ENE 5.8 mph - 0.08 in Snow Light Snow
4:51 PM 32.0 °F 28.7 °F 32.0 °F 100% 29.87 in 0.5 mi NNE 3.5 mph - 0.10 in Fog , Snow Snow
5:51 PM 32.0 °F 27.5 °F 32.0 °F 100% 29.87 in 0.8 mi NNE 4.6 mph - 0.10 in Snow Light Snow
6:06 PM 33.8 °F 30.8 °F 32.0 °F 93% 29.85 in 1.0 mi North 3.5 mph - 0.01 in Snow Light Snow
6:36 PM 33.8 °F 29.6 °F 32.0 °F 93% 29.85 in 1.5 mi North 4.6 mph - 0.02 in Snow Light Snow
6:51 PM 32.0 °F 27.5 °F 32.0 °F 100% 29.88 in 1.2 mi North 4.6 mph - 0.03 in Snow Light Snow
7:10 PM 32.0 °F 26.4 °F 32.0 °F 100% 29.85 in 1.5 mi North 5.8 mph - 0.01 in Snow Light Snow
7:51 PM 32.0 °F 25.6 °F 32.0 °F 100% 29.88 in 1.5 mi North 6.9 mph - 0.03 in Snow Light Snow
8:17 PM 32.0 °F 24.8 °F 32.0 °F 100% 29.86 in 2.0 mi North 8.1 mph - 0.01 in Snow Light Snow
8:51 PM 33.1 °F 25.5 °F 32.0 °F 96% 29.89 in 2.5 mi NNW 9.2 mph - 0.01 in Snow Light Snow
9:03 PM 33.8 °F 26.4 °F 32.0 °F 93% 29.87 in 3.0 mi NNW 9.2 mph - 0.00 in Snow Light Snow
9:51 PM 33.1 °F 24.4 °F 32.0 °F 96% 29.90 in 3.0 mi NNW 11.5 mph - 0.01 in Snow Light Snow
10:28 PM 33.8 °F 24.3 °F 32.0 °F 93% 29.89 in 5.0 mi NNW 13.8 mph - 0.00 in Snow Light Snow
10:51 PM 33.1 °F 23.4 °F 32.0 °F 96% 29.92 in 4.0 mi NNW 13.8 mph - 0.00 in Snow Light Snow
11:51 PM 33.1 °F 21.9 °F 30.9 °F 92% 29.94 in 3.0 mi NNW 18.4 mph - 0.01 in Snow Light Snow